Date String (YYYY-MM-DD hh:mm:ss) UTC,Instrument flags,Ambient pressure (hPa),Sample flow (lpm),Bypass flow (lpm),Sample temperature (°C),Ambient temperature (°C),ASC tube jacket temperature (°C),LED temperature (°C),Box temperature (°C),Sample RH (%),Span deviation,Mass concentration (μg/m³),Mass concentration (μg/m³),Mass concentration (μg/m³)
DateTimeUTC,F1_M11,P_M11,Q1_M11,Q2_M11,T1_M11,T2_M11,T3_M11,T4_M11,T5_M11,U1_M11,ZSPAN_M11,X0_M11,X2_M11,X1_M11
2021-09-23 08:00:00,,0828.3,5.01,0.00,30.3,29.3,00.0,39.4,32.0,07.5,0000.0,0003.24,0001.24,0000.91
2021-09-23 08:01:00,,0828.3,4.99,0.00,30.3,29.3,00.0,39.4,32.0,07.6,0000.0,0004.02,0001.25,0000.91
2021-09-23 08:02:00,,0828.3,5.00,0.00,30.3,29.3,00.0,39.4,32.0,07.6,0000.0,0004.40,0001.25,0000.91
2021-09-23 08:03:00,,0828.3,4.99,0.00,30.3,29.3,00.0,39.4,32.0,07.6,0000.0,0004.41,0001.25,0000.91
2021-09-23 08:04:00,,0828.3,5.01,0.00,30.3,29.3,00.0,39.4,32.0,07.6,0000.0,0004.02,0001.25,0000.90
2021-09-23 08:05:00,,0828.3,5.00,0.00,30.3,29.3,00.0,39.4,32.0,07.6,0000.0,0003.62,0001.25,0000.89
2021-09-23 08:06:00,,0828.4,5.00,0.00,30.3,29.3,00.0,39.5,32.0,07.6,0000.0,0003.40,0001.22,0000.89
2021-09-23 08:07:00,,0828.3,5.00,0.00,30.3,29.4,00.0,39.5,32.0,07.6,0000.0,0003.69,0001.25,0000.89
2021-09-23 08:08:00,,0828.3,5.01,0.00,30.3,29.4,00.0,39.5,32.0,07.6,0000.0,0003.87,0001.25,0000.88
2021-09-23 08:09:00,,0828.3,4.99,0.00,30.3,29.4,00.0,39.5,32.0,07.6,0000.0,0004.18,0001.28,0000.89
2021-09-23 08:10:00,,0828.3,5.01,0.00,30.3,29.4,00.0,39.5,32.0,07.6,0000.0,0004.37,0001.28,0000.88
2021-09-23 08:11:00,,0828.3,5.00,0.00,30.4,29.4,00.0,39.5,32.1,07.5,0000.0,0004.78,0001.30,0000.87
2021-09-23 08:12:00,,0828.3,4.99,0.00,30.4,29.4,00.0,39.5,32.1,07.6,0000.0,0004.02,0001.28,0000.86
2021-09-23 08:13:00,,0828.3,5.00,0.00,30.4,29.5,00.0,39.5,32.1,07.5,0000.0,0003.56,0001.25,0000.86
2021-09-23 08:14:00,,0828.3,5.01,0.00,30.4,29.5,00.0,39.5,32.1,07.5,0000.0,0003.49,0001.23,0000.85
2021-09-23 08:15:00,,0828.3,4.99,0.00,30.4,29.5,00.0,39.5,32.1,07.6,0000.0,0003.51,0001.25,0000.86
2021-09-23 08:16:00,,0828.3,4.99,0.00,30.4,29.5,00.0,39.5,32.1,07.6,0000.0,0003.63,0001.27,0000.86
2021-09-23 08:17:00,,0828.3,5.01,0.00,30.4,29.5,00.0,39.5,32.1,07.5,0000.0,0003.70,0001.28,0000.86
2021-09-23 08:18:00,,0828.3,5.00,0.00,30.4,29.5,00.0,39.5,32.1,07.5,0000.0,0003.32,0001.27,0000.85
2021-09-23 08:19:00,,0828.2,5.00,0.00,30.4,29.5,00.0,39.5,32.1,07.5,0000.0,0003.08,0001.29,0000.85
2021-09-23 08:20:00,,0828.3,5.02,0.00,30.4,29.5,00.0,39.6,32.1,07.5,0000.0,0002.70,0001.26,0000.84
2021-09-23 08:21:00,,0828.2,4.99,0.00,30.4,29.5,00.0,39.6,32.1,07.5,0000.0,0002.78,0001.26,0000.85
2021-09-23 08:22:00,,0828.2,4.99,0.00,30.5,29.5,00.0,39.6,32.1,07.5,0000.0,0002.63,0001.26,0000.85
2021-09-23 08:23:00,,0828.3,5.00,0.00,30.5,29.5,00.0,39.6,32.1,07.4,0000.0,0002.68,0001.28,0000.85
2021-09-23 08:24:00,,0828.2,5.01,0.00,30.5,29.5,00.0,39.6,32.2,07.4,0000.0,0002.90,0001.29,0000.85
2021-09-23 08:25:00,,0828.3,5.00,0.00,30.5,29.5,00.0,39.6,32.1,07.4,0000.0,0002.99,0001.30,0000.84
2021-09-23 08:26:00,,0828.3,5.00,0.00,30.5,29.5,00.0,39.6,32.1,07.5,0000.0,0003.00,0001.30,0000.84
2021-09-23 08:27:00,,0828.3,5.01,0.00,30.5,29.6,00.0,39.6,32.2,07.5,0000.0,0002.95,0001.28,0000.84
2021-09-23 08:28:00,,0828.2,5.01,0.00,30.5,29.6,00.0,39.6,32.2,07.5,0000.0,0002.97,0001.29,0000.85
2021-09-23 08:29:00,,0828.2,4.99,0.00,30.5,29.6,00.0,39.6,32.2,07.5,0000.0,0003.00,0001.29,0000.86
2021-09-23 08:30:00,,0828.2,5.01,0.00,30.5,29.5,00.0,39.6,32.2,07.6,0000.0,0004.02,0001.28,0000.88
2021-09-23 08:31:00,,0828.2,5.00,0.00,30.5,29.5,00.0,39.6,32.2,07.6,0000.0,0004.89,0001.29,0000.89
2021-09-23 08:32:00,,0828.2,4.99,0.00,30.5,29.5,00.0,39.6,32.2,07.6,0000.0,0004.56,0001.28,0000.89
2021-09-23 08:33:00,,0828.2,5.01,0.00,30.5,29.5,00.0,39.6,32.2,07.6,0000.0,0004.49,0001.27,0000.89
2021-09-23 08:34:00,,0828.1,4.98,0.00,30.5,29.5,00.0,39.6,32.2,07.6,0000.0,0004.41,0001.26,0000.89
2021-09-23 08:35:00,,0828.1,5.01,0.00,30.5,29.5,00.0,39.6,32.2,07.5,0000.0,0004.18,0001.25,0000.89
2021-09-23 08:36:00,,0828.1,4.99,0.00,30.5,29.5,00.0,39.6,32.2,07.5,0000.0,0004.24,0001.26,0000.90
2021-09-23 08:37:00,,0828.1,5.00,0.00,30.5,29.6,00.0,39.7,32.2,07.5,0000.0,0004.54,0001.26,0000.91
2021-09-23 08:38:00,,0828.1,5.01,0.00,30.5,29.6,00.0,39.7,32.2,07.6,0000.0,0004.49,0001.26,0000.91
2021-09-23 08:39:00,,0828.2,4.99,0.00,30.5,29.6,00.0,39.7,32.2,07.6,0000.0,0004.33,0001.22,0000.91
2021-09-23 08:40:00,,0828.2,5.00,0.00,30.5,29.6,00.0,39.7,32.2,07.6,0000.0,0004.21,0001.17,0000.90
2021-09-23 08:41:00,,0828.1,5.01,0.00,30.5,29.6,00.0,39.7,32.2,07.6,0000.0,0003.44,0001.15,0000.88
2021-09-23 08:42:00,,0828.1,4.99,0.00,30.5,29.6,00.0,39.7,32.2,07.6,0000.0,0002.45,0001.16,0000.88
2021-09-23 08:43:00,,0828.1,5.02,0.00,30.5,29.6,00.0,39.7,32.2,07.7,0000.0,0002.58,0001.18,0000.87
2021-09-23 08:44:00,,0828.1,5.00,0.00,30.5,29.6,00.0,39.7,32.2,07.6,0000.0,0002.55,0001.17,0000.87
2021-09-23 08:45:00,,0828.2,4.99,0.00,30.5,29.6,00.0,39.7,32.2,07.7,0000.0,0002.73,0001.21,0000.87
2021-09-23 08:46:00,,0828.1,5.01,0.00,30.5,29.6,00.0,39.7,32.2,07.7,0000.0,0002.75,0001.22,0000.87
2021-09-23 08:47:00,,0828.2,5.00,0.00,30.6,29.6,00.0,39.7,32.2,07.7,0000.0,0002.69,0001.20,0000.87
2021-09-23 08:48:00,,0828.1,5.00,0.00,30.6,29.6,00.0,39.7,32.2,07.6,0000.0,0002.30,0001.18,0000.87
2021-09-23 08:49:00,,0828.2,5.00,0.00,30.6,29.6,00.0,39.7,32.3,07.7,0000.0,0002.41,0001.23,0000.87
2021-09-23 08:50:00,,0828.1,5.00,0.00,30.6,29.6,00.0,39.7,32.3,07.7,0000.0,0002.45,0001.26,0000.87
2021-09-23 08:51:00,,0828.1,5.00,0.00,30.6,29.2,00.0,39.7,32.2,07.7,0000.0,0002.58,0001.29,0000.88
2021-09-23 08:52:00,,0828.1,5.01,0.00,30.5,27.2,00.0,39.7,31.8,07.7,0000.0,0002.72,0001.29,0000.88
2021-09-23 08:53:00,,0828.1,5.00,0.00,30.3,26.6,00.0,39.6,31.6,07.9,0000.0,0002.70,0001.26,0000.87
2021-09-23 08:54:00,,0828.1,4.99,0.00,30.2,26.9,00.0,39.6,31.5,08.0,0000.0,0002.70,0001.28,0000.87
2021-09-23 08:55:00,,0828.1,5.01,0.00,30.1,27.3,00.0,39.5,31.5,08.1,0000.0,0002.69,0001.30,0000.88
2021-09-23 08:56:00,,0828.0,5.00,0.00,30.1,27.6,00.0,39.4,31.5,08.1,0000.0,0004.08,0001.29,0000.89
2021-09-23 08:57:00,,0828.0,4.99,0.00,30.1,27.9,00.0,39.4,31.6,08.4,0000.0,0004.70,0001.33,0000.90
2021-09-23 08:58:00,,0828.0,5.00,0.00,30.1,28.2,00.0,39.4,31.6,08.3,0000.0,0005.43,0001.37,0000.92
2021-09-23 08:59:00,,0828.0,5.00,0.00,30.1,28.4,00.0,39.4,31.7,08.2,0000.0,0005.77,0001.38,0000.93
